Regional Weather Roundup
Issued by NWS Albany, NY

Home | Current Version | Previous Version | Graphics & Text | Print | Product List | Glossary Off
Versions: 1 2 3 4 5 6 7 8 9 10 11 12 13 14 15 16 17 18 19 20 21 22 23 24 25 26 27 28

000
ASUS41 KALY 290210
RWRALY

NEW YORK STATE HOURLY WEATHER ROUNDUP
NATIONAL WEATHER SERVICE ALBANY NY
1000 PM EDT SUN AUG 28 2016

NOTE: "FAIR" INDICATES FEW OR NO CLOUDS BELOW 12,000 FEET WITH NO
SIGNIFICANT WEATHER AND/OR NO OBSTRUCTIONS TO VISIBILITY.

NYZ032-033-038>043-046>054-057>066-NYZ062>081-082-084-290300-
EAST


CITY           SKY/WX    TMP DP  RH WIND       PRES   REMARKS
ALBANY         MOCLDY    79  64  60 S8        30.09S
GLENS FALLS    MOCLDY    75  66  73 S6        30.08S
POUGHKEEPSIE   CLEAR     76  61  59 S7        30.12S
NEWBURGH       CLEAR     77  64  65 CALM      30.16R
MONTGOMERY     CLEAR     72  67  84 S5        30.15R
WHITE PLAINS   CLEAR     71  64  78 SE5       30.17R
ISLIP          PTCLDY    74  65  73 S7        30.16S
NEW YORK CITY  PTCLDY    78  68  71 S12       30.15S
CENTRAL PARK   CLEAR     76  66  71 VRB3      30.18F
$$

NYZ005>009-017-018-044>046-055-056-290300-
CENTRAL


CITY           SKY/WX    TMP DP  RH WIND       PRES   REMARKS
FULTON         CLEAR     74  69  85 S5        30.11R
SYRACUSE       CLOUDY    77  70  79 NW3       30.10S
ROME           PTCLDY    71  71 100 CALM      30.12S
ELMIRA         CLOUDY    76  72  87 SW5       30.13S
BINGHAMTON     CLOUDY    75  66  73 SW6       30.17S
MONTICELLO     CLEAR     72  63  73 CALM      30.20S
$$

NYZ026>034-041>043-087-290300-
NORTH


CITY           SKY/WX    TMP DP  RH WIND       PRES   REMARKS
WATERTOWN      MOCLDY    76  70  82 SW8       30.08R
FORT DRUM      NOT AVBL
MASSENA        CLEAR     76  67  73 SW10      30.03S
SARANAC LAKE   PTCLDY    73  66  78 SW7       30.10F
PLATTSBURGH    CLEAR     69  67  93 CALM      30.02F
$$

NYZ001>004-010>016-019>021-085-290300-
WEST


CITY           SKY/WX    TMP DP  RH WIND       PRES   REMARKS
NIAGARA FALLS  PTCLDY    77  71  82 SW8       30.15R
BUFFALO        MOCLDY    77  74  90 SW8       30.16R
DUNKIRK        CLOUDY    75  73  93 S5        30.18R
JAMESTOWN      MOCLDY    73  66  78 W7        30.23S
WELLSVILLE     CLOUDY    72  66  81 W9        30.24R
ROCHESTER      PTCLDY    75  71  87 SW7       30.13R
PENN YAN       CLOUDY    76  67  73 CALM      30.15R
$$

             KEY
       WCI = WIND CHILL INDEX
       VSB = VISIBILITY
       HX  = HEAT INDEX
$$




USA.gov is the U.S. government's official web portal to all federal, state and local government web resources and services.